Regional Weather Roundup
Issued by NWS State College, PA

Home | Current Version | Previous Version | Text Only | Print | Product List | Glossary Off
Versions: 1 2 3 4 5 6 7 8 9 10 11 12 13 14 15 16 17 18 19 20 21 22 23 24 25 26 27 28 29 30 31 32 33 34 35 36 37 38 39 40 41 42 43 44 45 46 47 48 49 50

000
ASUS41 KCTP 230310
RWRCTP

REGIONAL WEATHER ROUNDUP
NATIONAL WEATHER SERVICE STATE COLLEGE PA
1100 PM EDT THU JUN 22 2017

Note: "fair" indicates few or no clouds below 12,000 feet with no
significant weather and/or obstructions to visibility.

* = STATION THAT DOES NOT REPORT PRECIPITATION /E.G. RAIN...SNOW...ETC/
    THUNDER OR FOG.

PAZ002>004-007>009-013>016-020>023-029>032-230400-
WESTERN PENNSYLVANIA

CITY           SKY/WX    TMP DP  RH WIND       PRES   REMARKS
ERIE           MOCLDY    78  67  68 S15       29.84S
MEADVILLE      CLOUDY    74  68  81 VRB7      29.92S
FRANKLIN*      CLOUDY    72  64  78 S12       29.94F
NEW CASTLE     FAIR      75  69  81 VRB5      29.93F
BEAVER COUNTY  NOT AVBL
BUTLER*        CLOUDY    73  66  78 S6        29.95F
PITTSBURGH INT CLOUDY    77  69  76 S9        29.95S
PITTSBURGH     CLOUDY    75  67  76 S9        29.96R
INDIANA*       CLEAR     68  68 100 CALM      30.00S
LATROBE        CLOUDY    72  70  94 S5        29.98S
WASHINGTON CO* CLOUDY    72  66  83 CALM      30.00R
$$

PAZ004>006-010>012-017>019-024>028-033>037-041-042-045-046-049>053-230400-
CENTRAL PENNSYLVANIA

CITY           SKY/WX    TMP DP  RH WIND       PRES   REMARKS
BRADFORD       CLOUDY    69  67  93 SW7       29.97S
DUBOIS         CLOUDY    71  64  78 SW9       29.96F
CLEARFIELD     CLOUDY    68  67  96 S3        29.98F
JOHNSTOWN      CLOUDY    72  65  78 S7        30.03S
ALTOONA        CLOUDY    68  68 100 SE3       30.00F FOG
STATE COLLEGE  CLOUDY    70  67  88 W7        29.98S
WILLIAMSPORT   CLOUDY    74  70  87 SW6       29.92S
SELINSGROVE    CLOUDY    72  71  97 CALM      29.94F
FT INDIANTOWN  MOCLDY    74  74  99 W9        29.94F
CAPITAL CITY   CLOUDY    72  67  84 W6        29.94F
HARRISBURG     CLOUDY    73  69  87 NW6       29.93F
YORK           MOCLDY    72  69  90 CALM      29.95F
$$

PAZ038>040-043-044-047-048-054-055-060>062-067>071-230400-
EASTERN PENNSYLVANIA

CITY           SKY/WX    TMP DP  RH WIND       PRES   REMARKS
SCRANTON       CLOUDY    77  68  73 SW8       29.94S
MOUNT POCONO   PTCLDY    71  66  84 W7        29.99S
ALLENTOWN      CLOUDY    80  69  69 SW9       29.92S
QUAKERTOWN*    CLOUDY    77  72  83 CALM      29.95S
READING        CLOUDY    77  74  90 W6        29.93S
LANCASTER      CLOUDY    80  72  76 NW7       29.94F
COATESVILLE    CLOUDY    77  72  83 CALM      29.97F
POTTSTOWN      CLOUDY    79  70  74 SW6       29.94F
BLUE BELL      CLOUDY    77  70  78 SW5       29.94F
DOYLESTOWN     CLOUDY    79  70  74 SW5       29.93S
WILLOW GROVE   NOT AVBL
NORTH PHILA    MOCLDY    83  70  64 SW6       29.94S
PHILADELPHIA   CLOUDY    81  71  71 S6        29.93S
$$



USA.gov is the U.S. government's official web portal to all federal, state and local government web resources and services.